| time (UTC) | temp C | wind direction | speed KPH | gust KPH | rain 1hr cm | rain 24hr cm | rain mn cm | humidity % | barometer mb |
| 20260904190048 | 32 | 200 | 12.9 | 24.1 | 0.00 | 0.03 | 0.03 | 54 | 988.9 |
| 20260904184548 | 32 | 184 | 17.7 | 29.0 | 0.00 | 0.03 | 0.03 | 55 | 989.0 |
| 20260904183047 | 32 | 192 | 14.5 | 27.4 | 0.00 | 0.03 | 0.03 | 52 | 989.0 |
| 20260904181546 | 32 | 205 | 16.1 | 24.1 | 0.00 | 0.03 | 0.03 | 52 | 989.0 |
| 20260904180028 | 32 | 218 | 17.7 | 24.1 | 0.00 | 0.03 | 0.03 | 53 | 989.3 |
| 20260904174526 | 32 | 225 | 14.5 | 30.6 | 0.00 | 0.03 | 0.03 | 51 | 989.5 |
| 20260904173007 | 32 | 166 | 11.3 | 22.5 | 0.00 | 0.03 | 0.03 | 57 | 989.6 |
| 20260904171505 | 31 | 198 | 16.1 | 22.5 | 0.00 | 0.03 | 0.03 | 61 | 989.6 |
| 20260904170054 | 31 | 180 | 14.5 | 22.5 | 0.00 | 0.03 | 0.03 | 63 | 989.7 |
| 20260904164553 | 31 | 201 | 11.3 | 25.7 | 0.00 | 0.03 | 0.03 | 61 | 989.7 |
| 20260904163055 | 30 | 218 | 6.4 | 16.1 | 0.00 | 0.03 | 0.03 | 63 | 989.7 |
| 20260904161556 | 30 | 167 | 8.0 | 19.3 | 0.00 | 0.03 | 0.03 | 66 | 989.8 |
| 20260904160046 | 30 | 225 | 16.1 | 25.7 | 0.00 | 0.03 | 0.03 | 66 | 989.6 |
| 20260904154544 | 29 | 219 | 11.3 | 22.5 | 0.00 | 0.03 | 0.03 | 67 | 989.8 |
| 20260904153102 | 28 | 221 | 16.1 | 19.3 | 0.00 | 0.03 | 0.03 | 67 | 989.6 |
| 20260904151540 | 28 | 233 | 12.9 | 19.3 | 0.00 | 0.03 | 0.03 | 66 | 989.6 |
| 20260904150023 | 28 | 236 | 17.7 | 25.7 | 0.00 | 0.03 | 0.03 | 63 | 989.5 |
| 20260904144518 | 27 | 250 | 14.5 | 22.5 | 0.00 | 0.03 | 0.03 | 57 | 989.5 |
| 20260904143014 | 27 | 242 | 16.1 | 22.5 | 0.00 | 0.03 | 0.03 | 48 | 989.2 |
| 20260904141514 | 27 | 244 | 16.1 | 20.9 | 0.00 | 0.03 | 0.03 | 37 | 989.1 |
| 20260904140009 | 26 | 242 | 12.9 | 22.5 | 0.00 | 0.03 | 0.03 | 31 | 989.1 |
| 20260904134507 | 26 | 251 | 11.3 | 19.3 | 0.00 | 0.03 | 0.03 | 23 | 989.0 |
| 20260904133005 | 26 | 255 | 6.4 | 19.3 | 0.00 | 0.03 | 0.03 | 18 | 988.9 |
| 20260904131502 | 25 | 252 | 9.7 | 17.7 | 0.00 | 0.03 | 0.03 | 18 | 988.8 |
| 20260904130055 | 25 | 250 | 6.4 | 12.9 | 0.00 | 0.03 | 0.03 | 19 | 988.9 |
| 20260904124547 | 25 | 242 | 9.7 | 17.7 | 0.03 | 0.03 | 0.03 | 20 | 988.8 |
| 20260904123049 | 25 | 244 | 8.0 | 16.1 | 0.03 | 0.03 | 0.03 | 21 | 988.7 |
| 20260904121544 | 25 | 240 | 12.9 | 19.3 | 0.03 | 0.03 | 0.03 | 22 | 988.4 |
| 20260904120047 | 25 | 242 | 12.9 | 17.7 | 0.03 | 0.03 | 0.03 | 25 | 988.3 |
| 20260904114538 | 25 | 236 | 8.0 | 12.9 | 0.00 | 0.00 | 0.00 | 30 | 988.4 |
| 20260904113036 | 25 | 218 | 8.0 | 14.5 | 0.00 | 0.00 | 0.00 | 34 | 988.3 |
| 20260904111532 | 26 | 181 | 9.7 | 14.5 | 0.00 | 0.00 | 0.00 | 40 | 988.3 |
| 20260904110017 | 26 | 168 | 12.9 | 14.5 | 0.00 | 0.00 | 0.00 | 43 | 988.2 |
| 20260904104515 | 26 | 184 | 11.3 | 14.5 | 0.00 | 0.00 | 0.00 | 44 | 988.1 |
| 20260904103012 | 26 | 186 | 8.0 | 16.1 | 0.00 | 0.00 | 0.00 | 44 | 988.0 |
| 20260904101517 | 26 | 193 | 11.3 | 16.1 | 0.00 | 0.00 | 0.00 | 45 | 987.9 |
| 20260904100010 | 26 | 175 | 9.7 | 17.7 | 0.00 | 0.00 | 0.00 | 46 | 987.9 |
| 20260904094508 | 26 | 184 | 9.7 | 14.5 | 0.00 | 0.00 | 0.00 | 47 | 987.8 |
| 20260904093007 | 26 | 183 | 9.7 | 14.5 | 0.00 | 0.00 | 0.00 | 47 | 987.6 |
| 20260904091505 | 26 | 190 | 8.0 | 12.9 | 0.00 | 0.00 | 0.00 | 47 | 987.6 |
| 20260904090051 | 26 | 186 | 9.7 | 16.1 | 0.00 | 0.00 | 0.00 | 46 | 987.7 |
| 20260904084557 | 26 | 202 | 9.7 | 12.9 | 0.00 | 0.00 | 0.00 | 47 | 987.7 |
| 20260904083052 | 26 | 202 | 6.4 | 11.3 | 0.00 | 0.00 | 0.00 | 48 | 987.7 |
| 20260904081547 | 26 | 196 | 6.4 | 11.3 | 0.00 | 0.00 | 0.00 | 50 | 987.9 |
| 20260904080105 | 26 | 197 | 8.0 | 16.1 | 0.00 | 0.00 | 0.00 | 53 | 987.9 |
| 20260904074545 | 26 | 194 | 12.9 | 19.3 | 0.00 | 0.00 | 0.00 | 56 | 987.7 |
| 20260904073045 | 26 | 217 | 12.9 | 22.5 | 0.00 | 0.00 | 0.00 | 57 | 987.7 |
| 20260904071544 | 26 | 213 | 14.5 | 19.3 | 0.00 | 0.00 | 0.00 | 57 | 987.9 |
| 20260904070050 | 26 | 213 | 12.9 | 17.7 | 0.00 | 0.00 | 0.00 | 57 | 988.0 |
| 20260904064527 | 26 | 206 | 12.9 | 22.5 | 0.00 | 0.00 | 0.00 | 57 | 988.0 |
| 20260904063028 | 26 | 205 | 12.9 | 24.1 | 0.00 | 0.00 | 0.00 | 58 | 988.0 |
| 20260904061507 | 26 | 202 | 17.7 | 24.1 | 0.00 | 0.00 | 0.00 | 59 | 987.9 |
| 20260904060009 | 26 | 196 | 16.1 | 20.9 | 0.00 | 0.00 | 0.00 | 59 | 988.0 |
| 20260904054553 | 26 | 194 | 14.5 | 22.5 | 0.00 | 0.00 | 0.00 | 60 | 987.9 |
| 20260904053058 | 26 | 209 | 14.5 | 24.1 | 0.00 | 0.00 | 0.00 | 61 | 987.9 |
| 20260904051530 | 26 | 198 | 14.5 | 24.1 | 0.00 | 0.00 | 0.00 | 61 | 987.9 |
| 20260904050029 | 27 | 197 | 14.5 | 27.4 | 0.00 | 0.00 | 0.00 | 63 | 987.8 |
| 20260904044516 | 27 | 180 | 17.7 | 24.1 | 0.00 | 0.00 | 0.00 | 64 | 987.8 |
| 20260904043016 | 27 | 182 | 14.5 | 20.9 | 0.00 | 0.00 | 0.00 | 65 | 987.7 |
| 20260904041515 | 27 | 200 | 14.5 | 22.5 | 0.00 | 0.00 | 0.00 | 66 | 987.7 |
| 20260904040015 | 27 | 190 | 16.1 | 20.9 | 0.00 | 0.00 | 0.00 | 67 | 987.7 |
| 20260904034513 | 27 | 177 | 14.5 | 22.5 | 0.00 | 0.00 | 0.00 | 67 | 987.7 |
| 20260904033022 | 27 | 177 | 20.9 | 25.7 | 0.00 | 0.00 | 0.00 | 68 | 987.6 |
| 20260904031512 | 27 | 173 | 16.1 | 22.5 | 0.00 | 0.00 | 0.00 | 69 | 987.5 |
| 20260904030012 | 27 | 178 | 14.5 | 24.1 | 0.00 | 0.00 | 0.00 | 69 | 987.5 |
| 20260904024558 | 27 | 169 | 16.1 | 19.3 | 0.00 | 0.00 | 0.00 | 69 | 987.4 |
| 20260904023054 | 27 | 175 | 16.1 | 20.9 | 0.00 | 0.00 | 0.00 | 68 | 987.2 |
| 20260904021554 | 27 | 182 | 12.9 | 19.3 | 0.00 | 0.00 | 0.00 | 68 | 987.1 |
| 20260904020043 | 28 | 182 | 14.5 | 20.9 | 0.00 | 0.00 | 0.00 | 67 | 986.8 |
| 20260904014545 | 28 | 175 | 16.1 | 22.5 | 0.00 | 0.00 | 0.00 | 66 | 986.6 |
| 20260904013041 | 28 | 188 | 14.5 | 19.3 | 0.00 | 0.00 | 0.00 | 66 | 986.6 |
| 20260904011546 | 28 | 165 | 14.5 | 24.1 | 0.00 | 0.00 | 0.00 | 65 | 986.5 |
| 20260904010038 | 28 | 171 | 17.7 | 27.4 | 0.00 | 0.00 | 0.00 | 65 | 986.3 |
| 20260904004539 | 29 | 168 | 22.5 | 29.0 | 0.00 | 0.00 | 0.00 | 65 | 986.3 |
| 20260904003037 | 30 | 153 | 20.9 | 32.2 | 0.00 | 0.00 | 0.00 | 65 | 986.3 |
| 20260904001517 | 30 | 146 | 20.9 | 32.2 | 0.00 | 0.00 | 0.00 | 64 | 986.2 |
| 20260904000017 | 30 | 144 | 19.3 | 32.2 | 0.00 | 0.00 | 0.00 | 64 | 986.2 |
| 20260903234558 | 31 | 150 | 19.3 | 30.6 | 0.00 | 0.00 | 0.00 | 64 | 985.9 |
| 20260903233058 | 31 | 186 | 29.0 | 40.2 | 0.00 | 0.00 | 0.00 | 62 | 985.9 |
| 20260903231546 | 31 | 166 | 29.0 | 40.2 | 0.00 | 0.00 | 0.00 | 60 | 985.8 |
| 20260903230039 | 31 | 177 | 32.2 | 41.8 | 0.00 | 0.00 | 0.00 | 60 | 985.6 |
| 20260903224523 | 32 | 148 | 27.4 | 37.0 | 0.00 | 0.00 | 0.00 | 65 | 985.6 |
| 20260903223022 | 32 | 150 | 24.1 | 38.6 | 0.00 | 0.00 | 0.00 | 65 | 985.5 |
| 20260903221509 | 32 | 136 | 25.7 | 40.2 | 0.00 | 0.00 | 0.00 | 64 | 985.5 |
| 20260903220007 | 32 | 144 | 30.6 | 37.0 | 0.00 | 0.00 | 0.00 | 62 | 985.5 |
| 20260903214506 | 32 | 146 | 22.5 | 33.8 | 0.00 | 0.00 | 0.00 | 62 | 985.5 |
| 20260903213104 | 32 | 130 | 22.5 | 32.2 | 0.00 | 0.00 | 0.00 | 63 | 985.8 |
| 20260903211504 | 32 | 145 | 24.1 | 37.0 | 0.00 | 0.00 | 0.00 | 63 | 985.8 |
| 20260903210003 | 33 | 146 | 19.3 | 30.6 | 0.00 | 0.00 | 0.00 | 62 | 985.9 |
| 20260903204606 | 33 | 165 | 22.5 | 32.2 | 0.00 | 0.00 | 0.00 | 62 | 986.0 |
| 20260903203056 | 32 | 146 | 22.5 | 32.2 | 0.00 | 0.00 | 0.00 | 62 | 986.4 |
| 20260903201536 | 33 | 122 | 14.5 | 30.6 | 0.00 | 0.00 | 0.00 | 60 | 986.7 |
| 20260903200035 | 33 | 137 | 12.9 | 24.1 | 0.00 | 0.00 | 0.00 | 58 | 986.7 |
| 20260903194514 | 33 | 134 | 11.3 | 20.9 | 0.00 | 0.00 | 0.00 | 57 | 986.9 |
| 20260903193016 | 32 | 169 | 11.3 | 22.5 | 0.00 | 0.00 | 0.00 | 59 | 987.0 |
| 20260903191603 | 32 | 157 | 11.3 | 24.1 | 0.00 | 0.00 | 0.00 | 59 | 987.3 |